Wind_Speed
57 60 58 62 65 64 63 64 61 55 56 58 62 62 49 46 51 49 49 56 58 56 53 51 48 45 44 44 45 44 43 42 39 35 32 30 28 25 21 18 17 18 19 19
62 60 59 67 68 69 69 66 67 60 63 62 63 67 57 49 51 52 52 54 60 59 56 53 50 48 44 42 42 44 43 43 41 38 35 33 30 26 21 20 20 19 19 20
64 58 67 69 71 72 73 71 68 66 65 66 68 69 63 53 52 55 51 54 59 60 57 56 53 50 46 44 42 40 42 43 42 40 37 35 31 27 24 24 21 19 19 19
64 65 71 72 75 72 76 71 73 70 66 71 69 73 66 60 56 55 52 55 56 61 59 58 55 52 49 46 43 42 43 43 43 41 38 36 34 30 29 24 20 20 21 19
65 74 78 79 74 75 76 74 74 73 73 71 74 76 62 60 60 51 53 53 56 58 59 60 58 53 51 49 46 45 44 44 44 42 39 39 36 33 29 25 22 23 22 19
75 76 77 80 78 74 76 75 75 74 72 80 72 76 73 60 55 59 52 55 55 56 59 61 60 57 53 52 50 48 47 45 44 42 39 39 37 32 29 26 26 24 21 20
65 64 66 66 72 69 67 68 71 71 71 80 68 79 75 60 56 60 55 53 54 56 56 60 61 60 55 53 51 49 47 44 41 40 40 40 36 32 31 29 27 24 21 24
53 51 28 26 35 50 53 58 68 60 67 79 73 83 73 66 61 56 60 56 54 56 57 60 62 62 58 55 52 48 46 44 42 41 39 38 36 32 33 28 28 26 25 24
39 40 25 31 32 36 40 48 60 55 47 70 69 76 69 70 64 61 58 57 53 54 57 58 63 63 60 57 55 50 46 43 42 41 40 39 35 34 31 30 29 20 27 24
21 43 16 22 40 38 32 40 45 64 54 55 48 71 69 69 68 61 59 59 40 46 56 56 58 61 62 59 56 54 50 46 43 43 42 41 38 36 33 32 28 31 30 27
23 30 16 20 28 40 40 45 54 45 69 57 49 68 68 70 69 63 64 59 60 40 47 56 55 58 60 60 60 57 53 50 47 45 43 41 39 38 36 36 36 33 30 28
16 20 24 25 28 28 42 30 51 48 50 63 63 57 46 49 48 63 61 49 58 58 42 48 55 54 57 58 59 59 57 54 51 49 47 45 42 41 39 39 37 33 32 31
21 21 21 21 22 26 31 25 59 51 33 50 65 66 21 29 29 46 55 51 44 60 49 40 45 53 54 53 55 57 59 58 56 54 51 49 47 45 43 41 39 38 36 35
16 4 18 22 21 23 30 21 45 67 55 46 53 63 59 30 27 29 34 53 46 41 56 52 47 42 51 52 52 54 55 57 58 57 56 54 51 49 47 44 43 41 38 36
17 13 22 18 20 27 34 20 15 43 64 50 40 52 60 55 31 30 30 32 42 54 50 47 44 47 45 53 48 52 54 54 55 55 55 54 52 50 48 46 44 42 39 36
16 19 24 20 23 23 34 31 27 23 47 55 56 45 44 62 42 33 32 33 37 43 55 55 46 45 49 48 50 53 50 52 54 53 54 53 51 47 46 45 44 42 39 41
18 20 27 25 24 24 30 31 30 25 37 42 48 51 36 34 45 44 36 35 37 40 47 52 46 46 49 50 48 46 53 51 50 51 50 50 50 47 45 45 44 44 45 43
21 22 24 27 20 12 9 27 32 30 32 43 41 39 53 40 47 50 40 38 34 34 48 53 54 41 41 49 51 50 49 50 50 50 49 49 48 47 48 49 48 44 42 41
17 19 25 27 24 17 3 10 27 36 27 33 43 39 32 51 44 56 47 41 34 33 36 42 53 48 42 47 54 52 50 51 50 49 49 48 46 46 46 46 44 42 39 37
17 18 23 26 28 24 14 6 7 26 21 32 35 44 38 45 57 47 58 57 41 39 40 37 38 50 46 46 48 53 53 51 50 50 51 48 46 45 44 43 41 39 38 36
22 18 22 23 27 30 25 17 8 20 26 18 26 34 41 41 49 57 52 53 49 47 44 45 41 40 44 44 45 47 48 53 52 51 49 49 48 47 45 43 42 41 40 39
23 27 20 24 29 32 29 29 19 16 16 24 25 32 43 32 47 47 60 56 57 54 53 48 44 41 41 41 42 43 44 46 47 48 48 49 49 48 47 45 44 41 41 41
26 21 24 25 28 28 24 30 32 24 18 27 35 32 41 50 38 56 49 64 51 64 60 55 52 52 47 44 42 41 45 44 45 46 46 47 47 45 44 44 44 42 39 37
28 24 28 30 31 26 26 26 27 24 23 25 28 41 36 45 54 42 56 54 53 49 58 55 49 48 52 53 45 42 41 45 44 44 44 43 43 44 45 46 45 43 40 40
29 32 30 31 32 33 30 31 30 25 27 28 29 34 49 46 44 55 49 61 53 48 58 58 54 51 47 53 47 45 44 42 42 43 43 43 42 41 43 45 45 46 47 46
27 31 34 28 23 34 38 40 37 33 33 34 31 34 36 41 51 46 60 56 66 63 52 58 56 57 55 54 53 50 46 44 43 42 42 41 42 43 42 42 42 45 48 47
Wind_Direction
271 265 266 265 264 262 259 257 254 250 253 253 253 252 245 241 241 238 233 227 224 223 222 224 224 223 223 221 222 223 223 225 227 230 234 237 241 248 253 263 274 288 300 307
274 273 267 262 260 260 259 255 254 250 252 253 250 250 242 241 240 237 236 229 225 223 222 224 225 226 224 224 223 226 227 228 230 233 235 239 243 249 253 258 268 281 294 300
272 270 266 263 260 260 260 258 255 255 249 252 252 249 245 237 239 238 232 234 228 225 222 223 225 228 225 226 225 227 230 231 232 234 236 240 244 248 249 255 267 279 284 292
274 269 266 263 260 257 255 256 255 254 251 247 250 248 243 237 236 238 233 233 230 228 225 224 224 227 228 226 228 226 228 231 233 235 237 241 244 248 253 260 267 268 274 283
279 274 269 262 259 258 256 253 252 254 249 247 245 250 236 239 234 237 237 233 234 229 227 225 225 225 230 230 229 228 228 228 231 234 236 240 243 246 251 256 256 260 267 277
281 274 268 263 257 253 253 248 246 247 247 241 241 246 242 239 235 234 238 234 232 232 227 227 226 223 226 230 231 230 229 229 231 233 235 239 242 244 248 249 251 255 261 271
278 273 269 261 255 249 243 243 240 240 235 242 240 242 242 238 237 234 234 236 233 233 229 228 227 225 222 229 232 232 233 232 232 233 234 238 240 241 242 243 246 250 254 262
288 278 264 259 261 256 243 236 236 233 242 247 241 239 235 237 239 238 236 234 234 233 229 227 227 227 222 223 230 232 232 232 231 233 233 235 236 234 236 238 242 245 251 258
286 274 260 239 225 241 245 227 231 223 237 242 241 237 235 235 236 236 232 234 235 232 234 226 226 227 226 221 225 228 229 229 229 229 229 232 231 232 234 233 235 252 256 255
283 280 257 240 237 228 242 214 218 218 224 235 236 233 233 237 239 236 235 229 234 233 231 231 225 227 226 224 223 224 225 225 224 224 226 228 228 228 228 227 228 231 246 253
313 285 264 262 253 233 242 215 216 220 221 224 233 232 228 233 238 239 235 228 227 230 229 231 227 226 227 225 224 224 223 225 224 225 225 227 227 228 227 229 235 238 244 251
325 303 293 271 256 247 229 242 213 214 221 222 226 221 230 234 239 238 239 238 226 226 229 226 230 226 226 226 224 224 225 224 225 225 225 227 228 229 231 233 239 243 248 252
328 298 292 254 247 247 231 224 217 217 211 228 226 219 177 201 222 235 235 233 234 223 225 228 227 224 225 225 225 224 225 226 226 226 227 228 229 231 234 237 241 245 247 251
299 249 303 275 281 254 239 234 218 212 220 219 222 225 206 182 187 200 227 232 219 217 220 226 231 223 222 223 223 223 225 225 226 228 229 230 232 234 236 237 240 243 246 249
293 239 256 253 277 259 254 228 212 219 212 219 213 223 216 212 195 200 203 209 220 220 217 215 221 224 221 221 219 222 223 224 225 226 229 231 233 234 236 237 239 241 243 243
279 264 263 249 271 255 253 242 223 225 221 218 221 220 223 214 207 206 205 210 210 214 220 217 225 224 220 218 220 220 220 222 225 225 226 229 231 234 234 234 236 236 238 241
293 277 265 254 263 252 256 247 243 221 222 210 215 221 202 218 207 204 196 198 207 206 213 208 213 221 221 217 218 219 221 221 222 224 225 226 226 228 231 233 232 232 233 237
297 288 276 266 260 236 252 249 228 210 218 222 212 211 210 206 205 198 201 192 187 193 207 208 208 211 215 215 215 217 217 219 220 222 223 224 226 229 228 229 231 233 233 233
294 290 278 276 269 243 248 242 250 226 227 219 212 212 218 210 203 210 206 208 204 196 187 200 202 206 210 210 212 215 217 219 220 221 222 225 226 226 227 229 229 230 231 232
264 264 272 266 266 261 230 199 203 236 228 225 219 210 208 210 211 201 208 213 209 205 186 189 194 205 206 206 209 214 216 218 220 220 222 223 225 226 227 227 227 227 226 227
259 255 256 263 263 251 252 248 174 193 211 212 216 221 207 214 204 209 207 215 207 208 202 191 195 198 203 207 208 210 214 218 219 220 219 220 222 224 225 226 226 226 226 227
270 254 240 247 255 257 251 250 248 208 196 204 197 204 213 207 214 207 211 210 213 209 213 207 198 203 206 205 209 210 211 212 217 217 217 218 217 218 222 224 224 223 224 225
263 262 248 238 237 243 244 253 255 243 216 187 204 193 210 217 211 205 213 215 218 214 213 211 210 208 211 210 209 212 212 210 210 213 216 216 217 219 221 220 218 216 216 217
253 256 263 241 232 233 233 236 246 250 242 216 193 200 197 215 214 208 205 212 211 221 221 218 218 212 212 218 218 218 217 215 214 214 214 215 216 215 215 215 217 218 221 217
259 257 259 257 237 234 233 232 235 239 242 232 226 202 201 198 210 207 210 212 217 218 227 228 226 220 216 216 222 219 218 216 216 216 216 216 214 212 212 215 216 214 214 214
265 260 256 258 247 242 228 233 233 236 243 250 238 234 216 196 196 211 218 211 210 210 213 221 223 224 222 220 221 215 213 213 212 211 211 212 214 214 213 213 214 217 219 218
Height
5633 5639 5652 5643 5639 5643 5644 5649 5653 5665 5665 5665 5666 5668 5683 5689 5690 5697 5702 5707 5713 5720 5727 5733 5739 5746 5751 5756 5763 5769 5775 5779 5784 5788 5791 5794 5797 5800 5803 5805 5806 5806 5807 5806
5614 5628 5631 5618 5622 5623 5625 5632 5640 5645 5647 5648 5650 5650 5666 5676 5680 5684 5692 5698 5704 5710 5718 5724 5732 5738 5745 5751 5756 5762 5768 5773 5778 5782 5786 5789 5793 5796 5799 5801 5802 5803 5803 5803
5600 5619 5601 5601 5604 5607 5608 5617 5623 5624 5630 5629 5630 5634 5648 5664 5667 5672 5681 5688 5694 5701 5709 5715 5722 5730 5738 5743 5749 5756 5762 5766 5771 5775 5780 5784 5788 5792 5793 5796 5798 5800 5800 5800
5588 5585 5578 5577 5580 5588 5587 5600 5598 5604 5608 5614 5618 5614 5630 5647 5655 5661 5673 5678 5685 5692 5699 5705 5712 5721 5729 5737 5742 5747 5753 5759 5764 5769 5775 5778 5782 5786 5788 5793 5795 5795 5796 5797
5575 5555 5548 5551 5566 5564 5571 5574 5580 5584 5587 5596 5600 5601 5625 5633 5645 5658 5662 5668 5674 5682 5689 5696 5703 5712 5719 5726 5733 5738 5744 5750 5756 5762 5768 5771 5776 5780 5783 5788 5789 5790 5792 5793
5535 5527 5520 5528 5536 5542 5545 5550 5559 5563 5567 5561 5593 5596 5603 5625 5642 5642 5651 5657 5664 5670 5678 5685 5692 5700 5708 5715 5723 5729 5735 5743 5749 5755 5761 5764 5769 5774 5778 5782 5783 5785 5787 5788
5500 5498 5495 5498 5502 5514 5519 5528 5534 5541 5539 5546 5589 5576 5589 5616 5625 5632 5639 5645 5651 5658 5666 5673 5681 5688 5699 5706 5713 5721 5727 5735 5742 5748 5753 5757 5762 5767 5771 5775 5777 5780 5781 5783
5471 5471 5480 5486 5487 5489 5498 5511 5515 5528 5526 5549 5567 5547 5579 5599 5608 5617 5624 5632 5640 5645 5653 5661 5670 5677 5688 5697 5702 5711 5719 5726 5733 5739 5745 5749 5754 5760 5763 5768 5771 5774 5776 5778
5463 5461 5469 5474 5477 5478 5486 5488 5510 5516 5522 5524 5530 5552 5563 5580 5593 5604 5615 5621 5628 5635 5640 5649 5657 5666 5676 5686 5693 5701 5709 5716 5723 5729 5735 5740 5746 5752 5757 5761 5764 5768 5770 5772
5462 5447 5466 5468 5466 5472 5475 5491 5497 5498 5509 5510 5520 5545 5558 5570 5579 5590 5598 5610 5615 5621 5630 5637 5646 5653 5664 5674 5682 5690 5697 5705 5713 5719 5725 5731 5738 5743 5749 5753 5758 5761 5763 5766
5459 5455 5461 5460 5464 5468 5471 5477 5479 5489 5498 5504 5514 5527 5548 5555 5564 5573 5581 5593 5603 5611 5617 5626 5634 5642 5651 5661 5670 5679 5687 5694 5703 5710 5717 5723 5730 5736 5741 5746 5750 5753 5757 5760
5459 5454 5451 5455 5460 5461 5465 5471 5474 5481 5489 5494 5506 5521 5534 5544 5550 5560 5569 5579 5591 5600 5606 5614 5623 5630 5639 5648 5658 5668 5677 5684 5692 5700 5706 5713 5721 5727 5733 5738 5743 5747 5750 5753
5449 5448 5448 5449 5452 5454 5453 5454 5460 5470 5478 5484 5495 5505 5525 5531 5539 5547 5556 5570 5577 5587 5596 5603 5609 5618 5628 5637 5647 5657 5665 5674 5681 5689 5696 5703 5711 5718 5724 5729 5734 5738 5742 5746
5445 5445 5447 5444 5444 5444 5447 5450 5453 5458 5460 5476 5481 5499 5518 5526 5531 5538 5545 5556 5568 5575 5585 5593 5600 5608 5616 5625 5635 5645 5653 5662 5669 5677 5685 5693 5700 5708 5714 5720 5725 5730 5734 5738
5440 5439 5438 5438 5437 5437 5439 5444 5448 5454 5462 5464 5481 5489 5507 5518 5522 5530 5537 5545 5554 5565 5573 5582 5590 5598 5607 5616 5623 5632 5641 5650 5658 5666 5675 5682 5690 5697 5705 5711 5716 5721 5725 5730
5436 5434 5432 5436 5433 5435 5438 5439 5442 5447 5453 5459 5471 5481 5494 5503 5516 5525 5530 5537 5543 5551 5560 5571 5580 5587 5595 5603 5611 5621 5630 5638 5646 5655 5664 5672 5680 5688 5694 5701 5707 5712 5717 5721
5432 5429 5428 5430 5430 5431 5435 5436 5439 5441 5448 5456 5462 5477 5491 5496 5508 5518 5522 5527 5534 5541 5550 5558 5569 5577 5584 5593 5601 5610 5620 5628 5636 5644 5653 5661 5669 5677 5684 5691 5697 5702 5707 5712
5426 5425 5425 5425 5427 5431 5431 5432 5435 5440 5447 5451 5459 5468 5479 5490 5499 5505 5513 5521 5527 5532 5541 5549 5559 5568 5575 5583 5591 5600 5609 5618 5627 5635 5643 5650 5658 5665 5672 5679 5686 5692 5697 5702
5422 5420 5420 5421 5423 5426 5430 5429 5430 5437 5443 5446 5453 5463 5475 5483 5488 5499 5505 5513 5519 5526 5532 5540 5548 5559 5566 5573 5581 5589 5599 5608 5617 5625 5633 5641 5647 5654 5661 5669 5676 5682 5688 5694
5418 5416 5415 5417 5416 5418 5423 5424 5427 5434 5440 5442 5447 5454 5460 5467 5478 5488 5495 5502 5511 5518 5524 5532 5540 5548 5556 5563 5572 5579 5588 5597 5605 5614 5622 5630 5637 5644 5651 5658 5665 5672 5678 5683
5409 5408 5408 5410 5411 5414 5417 5420 5424 5430 5434 5435 5438 5444 5452 5462 5471 5479 5486 5491 5503 5511 5519 5525 5533 5541 5549 5556 5564 5572 5580 5587 5595 5602 5610 5618 5625 5633 5640 5648 5655 5662 5668 5674
5401 5400 5403 5405 5407 5410 5412 5414 5418 5422 5424 5428 5432 5438 5448 5453 5462 5471 5478 5485 5491 5500 5509 5518 5524 5534 5543 5550 5558 5566 5572 5579 5587 5593 5600 5607 5614 5622 5630 5638 5644 5652 5658 5664
5391 5395 5395 5396 5400 5402 5406 5408 5410 5414 5419 5422 5427 5429 5436 5442 5451 5460 5469 5478 5485 5490 5497 5506 5516 5524 5534 5542 5550 5557 5564 5571 5577 5585 5591 5598 5605 5613 5620 5628 5635 5642 5648 5655
5384 5388 5384 5387 5393 5397 5398 5400 5402 5406 5411 5415 5418 5423 5428 5435 5441 5450 5458 5466 5475 5484 5490 5498 5506 5515 5524 5535 5542 5549 5556 5563 5570 5576 5583 5590 5597 5604 5611 5618 5625 5632 5638 5645
5376 5376 5379 5379 5384 5389 5391 5392 5393 5398 5402 5409 5412 5414 5420 5425 5431 5441 5446 5457 5464 5472 5480 5489 5498 5506 5514 5523 5532 5540 5547 5554 5562 5568 5575 5582 5588 5595 5601 5608 5616 5623 5629 5635
5368 5369 5369 5371 5377 5377 5380 5380 5385 5389 5393 5397 5404 5408 5411 5415 5420 5430 5436 5443 5452 5460 5467 5475 5486 5496 5504 5513 5522 5530 5538 5545 5553 5560 5566 5573 5581 5587 5594 5600 5607 5613 5620 5627